Time,TemperatureF,DewpointF,PressureIn,WindDirection,WindDirectionDegrees,WindSpeedMPH,WindSpeedGustMPH,Humidity,HourlyPrecipIn,Conditions,Clouds,dailyrainin,SoftwareType,DateUTC
2013-04-29 00:01:00,72.0,29.0,-100.00,NE,50,9.0,14.0,20,-99.99,,,-99.99,,2013-04-29 00:01:00,
2013-04-29 00:11:00,73.0,26.0,-100.00,North,357,10.0,14.0,17,-99.99,,,-99.99,,2013-04-29 00:11:00,
2013-04-29 00:22:00,73.0,27.0,-100.00,North,10,10.0,17.0,18,-99.99,,,-99.99,,2013-04-29 00:22:00,
2013-04-29 00:32:00,72.0,28.0,-100.00,NE,50,8.0,11.0,19,-99.99,,,-99.99,,2013-04-29 00:32:00,
2013-04-29 00:41:00,72.0,28.0,-100.00,NE,50,8.0,11.0,19,-99.99,,,-99.99,,2013-04-29 00:41:00,
2013-04-29 00:52:00,73.0,25.0,-100.00,WNW,294,4.0,8.0,16,-99.99,,,-99.99,,2013-04-29 00:52:00,
2013-04-29 01:01:00,74.0,27.0,-100.00,NNE,29,4.0,6.0,17,-99.99,,,-99.99,,2013-04-29 01:01:00,
2013-04-29 01:12:00,73.0,32.0,-100.00,NNE,26,5.0,11.0,21,-99.99,,,-99.99,,2013-04-29 01:12:00,
2013-04-29 01:21:00,71.0,32.0,-100.00,North,3,9.0,13.0,23,-99.99,,,-99.99,,2013-04-29 01:21:00,
2013-04-29 01:32:00,69.0,33.0,-100.00,NNE,30,9.0,14.0,26,-99.99,,,-99.99,,2013-04-29 01:32:00,
2013-04-29 01:41:00,67.0,32.0,-100.00,NNE,26,10.0,13.0,27,-99.99,,,-99.99,,2013-04-29 01:41:00,
2013-04-29 01:52:00,66.0,32.0,-100.00,NNE,22,8.0,12.0,27,-99.99,,,-99.99,,2013-04-29 01:52:00,
2013-04-29 02:01:00,65.0,31.0,-100.00,NNE,29,9.0,11.0,28,-99.99,,,-99.99,,2013-04-29 02:01:00,
2013-04-29 02:11:00,66.0,30.0,-100.00,NE,38,10.0,13.0,25,-99.99,,,-99.99,,2013-04-29 02:11:00,
2013-04-29 02:21:00,66.0,28.0,-100.00,NE,37,9.0,12.0,24,-99.99,,,-99.99,,2013-04-29 02:21:00,
2013-04-29 02:31:00,66.0,28.0,-100.00,NE,48,8.0,12.0,24,-99.99,,,-99.99,,2013-04-29 02:31:00,
2013-04-29 02:41:00,65.0,28.0,-100.00,NE,50,8.0,10.0,24,-99.99,,,-99.99,,2013-04-29 02:41:00,
2013-04-29 02:51:00,65.0,27.0,-100.00,NE,53,9.0,11.0,23,-99.99,,,-99.99,,2013-04-29 02:51:00,
2013-04-29 03:01:00,65.0,27.0,-100.00,NW,324,6.0,9.0,23,-99.99,,,-99.99,,2013-04-29 03:01:00,
2013-04-29 03:12:00,63.0,27.0,-100.00,ENE,65,7.0,8.0,25,-99.99,,,-99.99,,2013-04-29 03:12:00,
2013-04-29 03:21:00,64.0,27.0,-100.00,East,79,6.0,8.0,24,-99.99,,,-99.99,,2013-04-29 03:21:00,
2013-04-29 03:33:00,63.0,27.0,-100.00,East,81,3.0,7.0,25,-99.99,,,-99.99,,2013-04-29 03:33:00,
2013-04-29 03:42:00,63.0,26.0,-100.00,ENE,71,3.0,3.0,24,-99.99,,,-99.99,,2013-04-29 03:42:00,
2013-04-29 03:52:00,64.0,26.0,-100.00,NE,42,0.0,1.0,23,-99.99,,,-99.99,,2013-04-29 03:52:00,
2013-04-29 04:02:00,62.0,26.0,-100.00,ESE,110,2.0,4.0,25,-99.99,,,-99.99,,2013-04-29 04:02:00,
2013-04-29 04:12:00,59.0,27.0,-100.00,ESE,104,0.0,2.0,28,-99.99,,,-99.99,,2013-04-29 04:12:00,
2013-04-29 04:23:00,60.0,28.0,-100.00,East,98,1.0,4.0,29,-99.99,,,-99.99,,2013-04-29 04:23:00,
2013-04-29 04:32:00,60.0,27.0,-100.00,East,88,7.0,7.0,27,-99.99,,,-99.99,,2013-04-29 04:32:00,
2013-04-29 04:43:00,59.0,27.0,-100.00,ENE,76,2.0,5.0,28,-99.99,,,-99.99,,2013-04-29 04:43:00,
2013-04-29 04:52:00,57.0,28.0,-100.00,East,92,2.0,3.0,32,-99.99,,,-99.99,,2013-04-29 04:52:00,
2013-04-29 05:02:00,56.0,29.0,-100.00,East,85,3.0,4.0,34,-99.99,,,-99.99,,2013-04-29 05:02:00,
2013-04-29 05:12:00,56.0,28.0,-100.00,East,94,4.0,5.0,32,-99.99,,,-99.99,,2013-04-29 05:12:00,
2013-04-29 05:22:00,55.0,27.0,-100.00,ESE,114,5.0,5.0,33,-99.99,,,-99.99,,2013-04-29 05:22:00,
2013-04-29 05:32:00,54.0,27.0,-100.00,East,98,4.0,5.0,35,-99.99,,,-99.99,,2013-04-29 05:32:00,
2013-04-29 05:42:00,57.0,27.0,-100.00,ESE,115,5.0,5.0,31,-99.99,,,-99.99,,2013-04-29 05:42:00,
2013-04-29 05:52:00,58.0,26.0,-100.00,ESE,122,2.0,4.0,28,-99.99,,,-99.99,,2013-04-29 05:52:00,
2013-04-29 06:02:00,58.0,27.0,-100.00,SE,134,5.0,10.0,30,-99.99,,,-99.99,,2013-04-29 06:02:00,
2013-04-29 06:11:00,57.0,27.0,-100.00,SSE,163,3.0,6.0,31,-99.99,,,-99.99,,2013-04-29 06:11:00,
2013-04-29 06:21:00,59.0,26.0,-100.00,SE,137,6.0,7.0,27,-99.99,,,-99.99,,2013-04-29 06:21:00,
2013-04-29 06:32:00,54.0,29.0,-100.00,SSE,167,7.0,10.0,36,-99.99,,,-99.99,,2013-04-29 06:32:00,
2013-04-29 06:41:00,55.0,29.0,-100.00,North,7,6.0,8.0,36,-99.99,,,-99.99,,2013-04-29 06:41:00,
2013-04-29 06:51:00,55.0,28.0,-100.00,NNE,20,3.0,4.0,35,-99.99,,,-99.99,,2013-04-29 06:51:00,
2013-04-29 07:01:00,53.0,29.0,-100.00,NE,56,1.0,2.0,40,-99.99,,,-99.99,,2013-04-29 07:01:00,
2013-04-29 07:11:00,53.0,29.0,-100.00,ESE,120,0.0,5.0,39,-99.99,,,-99.99,,2013-04-29 07:11:00,
2013-04-29 07:21:00,53.0,28.0,-100.00,ENE,68,0.0,1.0,38,-99.99,,,-99.99,,2013-04-29 07:21:00,
2013-04-29 07:31:00,56.0,28.0,-100.00,NE,44,6.0,6.0,34,-99.99,,,-99.99,,2013-04-29 07:31:00,
2013-04-29 07:41:00,55.0,29.0,-100.00,North,7,7.0,7.0,36,-99.99,,,-99.99,,2013-04-29 07:41:00,
2013-04-29 07:52:00,54.0,30.0,-100.00,NE,49,9.0,9.0,40,-99.99,,,-99.99,,2013-04-29 07:52:00,
2013-04-29 08:02:00,54.0,29.0,-100.00,NE,54,8.0,8.0,37,-99.99,,,-99.99,,2013-04-29 08:02:00,
2013-04-29 08:11:00,57.0,28.0,-100.00,North,4,6.0,6.0,33,-99.99,,,-99.99,,2013-04-29 08:11:00,
2013-04-29 08:21:00,56.0,28.0,-100.00,NNE,26,7.0,10.0,32,-99.99,,,-99.99,,2013-04-29 08:21:00,
2013-04-29 08:31:00,58.0,26.0,-100.00,NE,46,9.0,14.0,28,-99.99,,,-99.99,,2013-04-29 08:31:00,
2013-04-29 08:41:00,59.0,26.0,-100.00,NE,45,8.0,14.0,27,-99.99,,,-99.99,,2013-04-29 08:41:00,
2013-04-29 08:51:00,58.0,27.0,-100.00,NE,45,6.0,10.0,29,-99.99,,,-99.99,,2013-04-29 08:51:00,
2013-04-29 09:01:00,58.0,27.0,-100.00,ENE,57,6.0,11.0,29,-99.99,,,-99.99,,2013-04-29 09:01:00,
2013-04-29 09:11:00,58.0,27.0,-100.00,NE,49,6.0,8.0,30,-99.99,,,-99.99,,2013-04-29 09:11:00,
2013-04-29 09:21:00,57.0,26.0,-100.00,NE,54,7.0,9.0,30,-99.99,,,-99.99,,2013-04-29 09:21:00,
2013-04-29 09:32:00,57.0,26.0,-100.00,NE,45,7.0,9.0,29,-99.99,,,-99.99,,2013-04-29 09:32:00,
2013-04-29 09:42:00,57.0,26.0,-100.00,ENE,59,6.0,8.0,29,-99.99,,,-99.99,,2013-04-29 09:42:00,
2013-04-29 09:52:00,56.0,26.0,-100.00,ENE,73,7.0,7.0,30,-99.99,,,-99.99,,2013-04-29 09:52:00,
2013-04-29 10:02:00,56.0,26.0,-100.00,ENE,61,8.0,9.0,30,-99.99,,,-99.99,,2013-04-29 10:02:00,
2013-04-29 10:12:00,57.0,26.0,-100.00,NE,56,7.0,9.0,30,-99.99,,,-99.99,,2013-04-29 10:12:00,
2013-04-29 10:22:00,57.0,26.0,-100.00,NE,56,8.0,10.0,29,-99.99,,,-99.99,,2013-04-29 10:22:00,
2013-04-29 10:32:00,56.0,26.0,-100.00,ENE,71,6.0,10.0,30,-99.99,,,-99.99,,2013-04-29 10:32:00,
2013-04-29 10:42:00,56.0,25.0,-100.00,ENE,74,8.0,9.0,30,-99.99,,,-99.99,,2013-04-29 10:42:00,
2013-04-29 10:52:00,56.0,25.0,-100.00,ENE,65,8.0,9.0,30,-99.99,,,-99.99,,2013-04-29 10:52:00,
2013-04-29 11:02:00,56.0,25.0,-100.00,ENE,72,7.0,8.0,30,-99.99,,,-99.99,,2013-04-29 11:02:00,
2013-04-29 11:12:00,56.0,25.0,-100.00,ENE,73,7.0,9.0,31,-99.99,,,-99.99,,2013-04-29 11:12:00,
2013-04-29 11:21:00,54.0,26.0,-100.00,North,353,3.0,4.0,33,-99.99,,,-99.99,,2013-04-29 11:21:00,
2013-04-29 11:31:00,51.0,26.0,-100.00,North,5,5.0,7.0,37,-99.99,,,-99.99,,2013-04-29 11:31:00,
2013-04-29 11:41:00,51.0,26.0,-100.00,NE,38,5.0,5.0,37,-99.99,,,-99.99,,2013-04-29 11:41:00,
2013-04-29 11:52:00,54.0,26.0,-100.00,NE,49,5.0,7.0,33,-99.99,,,-99.99,,2013-04-29 11:52:00,
2013-04-29 12:01:00,53.0,26.0,-100.00,NE,40,5.0,7.0,35,-99.99,,,-99.99,,2013-04-29 12:01:00,
2013-04-29 12:11:00,53.0,26.0,-100.00,ENE,63,6.0,6.0,34,-99.99,,,-99.99,,2013-04-29 12:11:00,
2013-04-29 12:21:00,52.0,26.0,-100.00,ENE,65,7.0,7.0,36,-99.99,,,-99.99,,2013-04-29 12:21:00,
2013-04-29 12:31:00,52.0,26.0,-100.00,ENE,69,7.0,7.0,36,-99.99,,,-99.99,,2013-04-29 12:31:00,
2013-04-29 12:41:00,52.0,26.0,-100.00,ENE,69,7.0,7.0,36,-99.99,,,-99.99,,2013-04-29 12:41:00,
2013-04-29 12:51:00,53.0,26.0,-100.00,ENE,60,7.0,7.0,35,-99.99,,,-99.99,,2013-04-29 12:51:00,
2013-04-29 13:01:00,52.0,26.0,-100.00,ENE,70,7.0,7.0,36,-99.99,,,-99.99,,2013-04-29 13:01:00,
2013-04-29 13:21:00,54.0,26.0,-100.00,East,82,4.0,4.0,33,-99.99,,,-99.99,,2013-04-29 13:21:00,
2013-04-29 13:31:00,48.0,30.0,-100.00,South,189,5.0,6.0,50,-99.99,,,-99.99,,2013-04-29 13:31:00,
2013-04-29 13:42:00,45.0,32.0,-100.00,SE,138,7.0,10.0,58,-99.99,,,-99.99,,2013-04-29 13:42:00,
2013-04-29 13:52:00,45.0,32.0,-100.00,SE,136,5.0,6.0,59,-99.99,,,-99.99,,2013-04-29 13:52:00,
2013-04-29 14:01:00,45.0,32.0,-100.00,South,172,5.0,5.0,58,-99.99,,,-99.99,,2013-04-29 14:01:00,
2013-04-29 14:11:00,45.0,32.0,-100.00,SSE,152,4.0,5.0,59,-99.99,,,-99.99,,2013-04-29 14:11:00,
2013-04-29 14:21:00,46.0,31.0,-100.00,SE,145,8.0,10.0,55,-99.99,,,-99.99,,2013-04-29 14:21:00,
2013-04-29 14:32:00,47.0,31.0,-100.00,SSE,160,7.0,9.0,51,-99.99,,,-99.99,,2013-04-29 14:32:00,
2013-04-29 14:42:00,48.0,32.0,-100.00,SSE,166,7.0,8.0,53,-99.99,,,-99.99,,2013-04-29 14:42:00,
2013-04-29 14:51:00,49.0,32.0,-100.00,SSE,148,8.0,9.0,51,-99.99,,,-99.99,,2013-04-29 14:51:00,
2013-04-29 15:01:00,50.0,32.0,-100.00,SSE,164,7.0,10.0,49,-99.99,,,-99.99,,2013-04-29 15:01:00,
2013-04-29 15:12:00,51.0,32.0,-100.00,SSE,157,6.0,7.0,48,-99.99,,,-99.99,,2013-04-29 15:12:00,
2013-04-29 15:21:00,53.0,30.0,-100.00,SSE,161,6.0,8.0,42,-99.99,,,-99.99,,2013-04-29 15:21:00,
2013-04-29 15:33:00,53.0,31.0,-100.00,SSE,163,7.0,8.0,42,-99.99,,,-99.99,,2013-04-29 15:33:00,
2013-04-29 15:42:00,54.0,31.0,-100.00,SSE,163,7.0,7.0,41,-99.99,,,-99.99,,2013-04-29 15:42:00,
2013-04-29 15:52:00,56.0,31.0,-100.00,SSE,165,6.0,7.0,39,-99.99,,,-99.99,,2013-04-29 15:52:00,
2013-04-29 16:02:00,57.0,32.0,-100.00,South,181,7.0,9.0,39,-99.99,,,-99.99,,2013-04-29 16:02:00,
2013-04-29 16:12:00,58.0,31.0,-100.00,SSW,196,5.0,7.0,36,-99.99,,,-99.99,,2013-04-29 16:12:00,
2013-04-29 16:23:00,59.0,31.0,-100.00,South,172,4.0,6.0,34,-99.99,,,-99.99,,2013-04-29 16:23:00,
2013-04-29 16:32:00,60.0,29.0,-100.00,South,185,6.0,6.0,31,-99.99,,,-99.99,,2013-04-29 16:32:00,
2013-04-29 16:42:00,61.0,28.0,-100.00,South,176,6.0,8.0,28,-99.99,,,-99.99,,2013-04-29 16:42:00,
2013-04-29 16:52:00,61.0,31.0,-100.00,SSW,193,6.0,8.0,31,-99.99,,,-99.99,,2013-04-29 16:52:00,
2013-04-29 17:02:00,62.0,31.0,-100.00,ESE,109,3.0,6.0,31,-99.99,,,-99.99,,2013-04-29 17:02:00,
2013-04-29 17:11:00,62.0,31.0,-100.00,South,184,2.0,6.0,30,-99.99,,,-99.99,,2013-04-29 17:11:00,
2013-04-29 17:22:00,62.0,32.0,-100.00,WSW,244,2.0,6.0,31,-99.99,,,-99.99,,2013-04-29 17:22:00,
2013-04-29 17:31:00,64.0,34.0,-100.00,SE,131,1.0,4.0,32,-99.99,,,-99.99,,2013-04-29 17:31:00,
2013-04-29 17:42:00,65.0,35.0,-100.00,NNE,12,0.0,3.0,32,-99.99,,,-99.99,,2013-04-29 17:42:00,
2013-04-29 17:52:00,65.0,29.0,-100.00,SSW,207,3.0,7.0,24,-99.99,,,-99.99,,2013-04-29 17:52:00,
2013-04-29 18:01:00,67.0,27.0,-100.00,WSW,256,0.0,5.0,22,-99.99,,,-99.99,,2013-04-29 18:01:00,
2013-04-29 18:12:00,67.0,29.0,-100.00,SW,225,6.0,10.0,24,-99.99,,,-99.99,,2013-04-29 18:12:00,
2013-04-29 18:22:00,67.0,28.0,-100.00,SSE,158,5.0,7.0,23,-99.99,,,-99.99,,2013-04-29 18:22:00,
2013-04-29 18:31:00,68.0,28.0,-100.00,ENE,64,4.0,6.0,22,-99.99,,,-99.99,,2013-04-29 18:31:00,
2013-04-29 18:41:00,68.0,29.0,-100.00,SSE,157,11.0,12.0,23,-99.99,,,-99.99,,2013-04-29 18:41:00,
2013-04-29 18:51:00,68.0,28.0,-100.00,West,262,4.0,12.0,22,-99.99,,,-99.99,,2013-04-29 18:51:00,
2013-04-29 19:01:00,69.0,28.0,-100.00,SSW,202,6.0,11.0,21,-99.99,,,-99.99,,2013-04-29 19:01:00,
2013-04-29 19:11:00,69.0,29.0,-100.00,South,172,3.0,11.0,21,-99.99,,,-99.99,,2013-04-29 19:11:00,
2013-04-29 19:21:00,71.0,29.0,-100.00,SSW,192,10.0,16.0,21,-99.99,,,-99.99,,2013-04-29 19:21:00,
2013-04-29 19:31:00,71.0,29.0,-100.00,SSW,192,10.0,16.0,21,-99.99,,,-99.99,,2013-04-29 19:31:00,
2013-04-29 19:41:00,71.0,29.0,-100.00,SSW,192,10.0,16.0,21,-99.99,,,-99.99,,2013-04-29 19:41:00,
2013-04-29 19:51:00,70.0,28.0,-100.00,SW,215,13.0,17.0,20,-99.99,,,-99.99,,2013-04-29 19:51:00,
2013-04-29 20:02:00,72.0,27.0,-100.00,South,190,14.0,25.0,18,-99.99,,,-99.99,,2013-04-29 20:02:00,
2013-04-29 20:11:00,71.0,26.0,-100.00,SSW,192,10.0,16.0,17,-99.99,,,-99.99,,2013-04-29 20:11:00,
2013-04-29 20:21:00,71.0,25.0,-100.00,South,183,13.0,21.0,17,-99.99,,,-99.99,,2013-04-29 20:21:00,
2013-04-29 20:32:00,72.0,25.0,-100.00,SSW,204,10.0,17.0,17,-99.99,,,-99.99,,2013-04-29 20:32:00,
2013-04-29 20:42:00,72.0,23.0,-100.00,South,184,18.0,23.0,15,-99.99,,,-99.99,,2013-04-29 20:42:00,
2013-04-29 20:51:00,73.0,25.0,-100.00,SSW,199,12.0,16.0,16,-99.99,,,-99.99,,2013-04-29 20:51:00,
2013-04-29 21:01:00,72.0,24.0,-100.00,South,183,14.0,17.0,16,-99.99,,,-99.99,,2013-04-29 21:01:00,
2013-04-29 21:11:00,73.0,24.0,-100.00,SSW,200,13.0,20.0,16,-99.99,,,-99.99,,2013-04-29 21:11:00,
2013-04-29 21:21:00,73.0,25.0,-100.00,South,183,16.0,22.0,16,-99.99,,,-99.99,,2013-04-29 21:21:00,
2013-04-29 21:32:00,72.0,24.0,-100.00,South,187,10.0,18.0,16,-99.99,,,-99.99,,2013-04-29 21:32:00,
2013-04-29 21:42:00,72.0,24.0,-100.00,South,187,10.0,18.0,16,-99.99,,,-99.99,,2013-04-29 21:42:00,
2013-04-29 21:53:00,72.0,21.0,-100.00,SW,229,9.0,20.0,14,-99.99,,,-99.99,,2013-04-29 21:53:00,
2013-04-29 22:02:00,73.0,24.0,-100.00,SSW,195,14.0,21.0,15,-99.99,,,-99.99,,2013-04-29 22:02:00,
2013-04-29 22:13:00,72.0,24.0,-100.00,SSW,205,11.0,16.0,16,-99.99,,,-99.99,,2013-04-29 22:13:00,
2013-04-29 22:23:00,73.0,26.0,-100.00,SSW,192,13.0,26.0,17,-99.99,,,-99.99,,2013-04-29 22:23:00,
2013-04-29 22:32:00,73.0,26.0,-100.00,SSW,213,8.0,15.0,17,-99.99,,,-99.99,,2013-04-29 22:32:00,
2013-04-29 22:42:00,73.0,25.0,-100.00,SSW,205,9.0,14.0,16,-99.99,,,-99.99,,2013-04-29 22:42:00,
2013-04-29 22:52:00,72.0,22.0,-100.00,SW,219,11.0,20.0,15,-99.99,,,-99.99,,2013-04-29 22:52:00,
2013-04-29 23:02:00,72.0,23.0,-100.00,SW,214,12.0,16.0,15,-99.99,,,-99.99,,2013-04-29 23:02:00,
2013-04-29 23:11:00,72.0,23.0,-100.00,SW,216,9.0,13.0,15,-99.99,,,-99.99,,2013-04-29 23:11:00,
2013-04-29 23:22:00,72.0,23.0,-100.00,SW,222,6.0,12.0,15,-99.99,,,-99.99,,2013-04-29 23:22:00,
2013-04-29 23:31:00,72.0,25.0,-100.00,SSW,213,8.0,11.0,16,-99.99,,,-99.99,,2013-04-29 23:31:00,
2013-04-29 23:42:00,72.0,24.0,-100.00,South,185,13.0,19.0,16,-99.99,,,-99.99,,2013-04-29 23:42:00,
2013-04-29 23:52:00,72.0,24.0,-100.00,South,181,9.0,12.0,16,-99.99,,,-99.99,,2013-04-29 23:52:00,